Aeroporto :
LOGIN :

Iscrizione | Disclaimer

   EN    FR    IT 

 










Sommario :    VFR   VFR Marginale   IFR   IFR Intensivo   IFR Molto Intensivo
Visibilità : 
Base nubi : 
>= 8 km
>= 3000ft
5 / 8 km
1000 / 3000 ft
1500m / 5 km
500 / 1000 ft
800 / 1500m
200 / 500 ft
< 800m
< 200 ft
Simboli :   Temporali  Nebbia  Neve Forte  Precipitazioni Forti  Vento > 20 kt
SIGMETs :   Varie  Temporali  Ghiacco  Turbolenza  Onda orograficha  Ceneri Vulcaniche







- Altitudine del aeroporto : 19 ft
- Codice IATA : LCY
- Carte del aeroporto


EGLC - London City

ULTIMO METAR :
  • 172220Z AUTO 23009KT 190V260 9999 NCD 17/13 Q1005

METARs OBSOLETI :
  • 172150Z AUTO 23009KT 9999 NCD 17/13 Q1005
  • 172120Z AUTO 23013KT 9999 NCD 18/13 Q1005
  • 172050Z AUTO 22010KT 9999 NCD 18/12 Q1005
  • 172020Z AUTO 23011KT 9999 NCD 18/12 Q1005

Previsioni scadute.
ATIS : +44 20 7646 0224
Nessun NOTAM noto per questo aeroporto.



MetMap, La meteo Aeronautica in un colpo d'occhio ! - Copyright ORBIFLY Dicembre 2007 - Disclaimer

ORBIFLY MET'MAP TEAM :

Programmazione e sviluppo : Alexandra Zaïnal
Concezione e sviluppo : Baudouin d'Aumeries
Co-Programmazione e sviluppo : Marc-Olivier Méhu
Supporto tecnico e logistico : Manuel Goepfert
Aiuto per la traduzione : Arnaldo La Scala

Contatto : metmap@orbifly.com




FONTI E CREDITI :

   NOAA